FW3961 Weather Reports


Display with metric or nautical units.
time (UTC)temp
F
wind
direction
speed
MPH
gust
MPH
rain 1hr
in
rain 24hr
in
rain mn
in
humidity
%
barometer
mb
20260504043107 75 296 0.0 2.0 0.00 0.00 0.00 46 1008.8
20260504042600 75 296 0.0 2.0 0.00 0.00 0.00 45 1008.7
20260504042054 76 304 0.0 2.0 0.00 0.00 0.00 46 1008.6
20260504042050 76 286 0.0 2.0 0.00 0.00 0.00 47 1008.7
20260504041042 77 286 0.0 2.0 0.00 0.00 0.00 46 1008.5
20260504040537 77 284 0.0 3.0 0.00 0.00 0.00 46 1008.4
20260504040030 78 355 0.0 3.0 0.00 0.00 0.00 46 1008.5
20260504035524 78 336 0.0 2.0 0.00 0.00 0.00 46 1008.5
20260504035017 78 69 0.0 6.0 0.00 0.00 0.00 45 1008.5
20260504034512 79 71 1.0 6.0 0.00 0.00 0.00 44 1008.5
20260504034007 79 293 1.0 4.0 0.00 0.00 0.00 44 1008.3
20260504034002 80 261 0.0 3.0 0.00 0.00 0.00 44 1008.4
20260504032954 80 262 1.0 3.0 0.00 0.00 0.00 43 1008.3
20260504032449 80 250 1.0 3.0 0.00 0.00 0.00 43 1008.3
20260504031943 81 300 0.0 3.0 0.00 0.00 0.00 42 1008.2
20260504031435 82 300 1.0 3.0 0.00 0.00 0.00 41 1008.2
20260504030929 82 315 1.0 2.0 0.00 0.00 0.00 40 1008.1
20260504030423 83 346 0.0 2.0 0.00 0.00 0.00 39 1008.1
20260504030419 83 346 0.0 0.0 0.00 0.00 0.00 42 1008.1
20260504025416 84 346 0.0 1.0 0.00 0.00 0.00 41 1008.1
20260504024916 84 346 0.0 1.0 0.00 0.00 0.00 41 1008.1
20260504024413 84 346 0.0 1.0 0.00 0.00 0.00 39 1008.1
20260504023915 85 346 0.0 1.0 0.00 0.00 0.00 39 1008.1
20260504023413 85 346 0.0 1.0 0.00 0.00 0.00 39 1008.1
20260504022916 85 346 0.0 3.0 0.00 0.00 0.00 38 1008.2
20260504022414 85 346 0.0 3.0 0.00 0.00 0.00 38 1008.2
20260504021914 86 0 0.0 2.0 0.00 0.00 0.00 38 1008.2
20260504021413 86 0 1.0 3.0 0.00 0.00 0.00 37 1008.1
20260504020914 86 5 1.0 3.0 0.00 0.00 0.00 37 1008.2
20260504020414 86 256 1.0 2.0 0.00 0.00 0.00 36 1008.1
20260504015910 87 223 1.0 2.0 0.00 0.00 0.00 37 1008.1
20260504015409 87 247 1.0 3.0 0.00 0.00 0.00 35 1008.2
20260504014911 87 245 1.0 3.0 0.00 0.00 0.00 35 1008.2
20260504014410 87 44 0.0 2.0 0.00 0.00 0.00 35 1008.2
20260504014143 88 238 1.0 3.0 0.00 0.00 0.00 35 1008.2
20260504013410 88 284 1.0 3.0 0.00 0.00 0.00 36 1008.2
20260504012910 88 255 1.0 4.0 0.00 0.00 0.00 35 1008.2
20260504012410 88 248 1.0 4.0 0.00 0.00 0.00 33 1008.3
20260504011910 89 242 0.0 2.0 0.00 0.00 0.00 34 1008.4
20260504011405 89 296 1.0 3.0 0.00 0.00 0.00 35 1008.3
20260504010905 89 296 1.0 3.0 0.00 0.00 0.00 33 1008.3
20260504010404 89 275 1.0 3.0 0.00 0.00 0.00 32 1008.3
20260504005904 89 325 1.0 3.0 0.00 0.00 0.00 33 1008.3
20260504005410 90 15 2.0 5.0 0.00 0.00 0.00 31 1008.4
20260504005406 90 318 2.0 5.0 0.00 0.00 0.00 32 1008.3
20260504004407 90 36 2.0 6.0 0.00 0.00 0.00 31 1008.4
20260504004403 90 46 2.0 5.0 0.00 0.00 0.00 32 1008.4
20260504003401 90 269 2.0 6.0 0.00 0.00 0.00 33 1008.4
20260504002859 90 37 2.0 5.0 0.00 0.00 0.00 31 1008.4
20260504002359 91 255 1.0 4.0 0.00 0.00 0.00 31 1008.7
20260504001900 91 199 1.0 3.0 0.00 0.00 0.00 32 1008.7
20260504001358 91 348 2.0 5.0 0.00 0.00 0.00 33 1008.6
20260504000858 91 282 2.0 5.0 0.00 0.00 0.00 35 1008.7
20260504000357 91 296 1.0 4.0 0.00 0.00 0.00 31 1008.7
20260503235900 90 345 1.0 4.0 0.00 0.00 0.00 32 1008.8
20260503235356 90 355 2.0 4.0 0.00 0.00 0.00 31 1008.7
20260503234850 91 19 1.0 3.0 0.00 0.00 0.00 33 1008.7
20260503234341 90 315 1.0 4.0 0.00 0.00 0.00 35 1008.7
20260503233840 90 102 1.0 6.0 0.00 0.00 0.00 34 1008.7
20260503233836 90 5 1.0 5.0 0.00 0.00 0.00 32 1008.7
20260503232826 90 263 1.0 6.0 0.00 0.00 0.00 34 1008.8
20260503232818 90 209 1.0 5.0 0.00 0.00 0.00 37 1008.8
20260503231814 90 355 2.0 5.0 0.00 0.00 0.00 35 1008.9
20260503231306 90 303 2.0 7.0 0.00 0.00 0.00 37 1009.0
20260503230759 90 301 1.0 7.0 0.00 0.00 0.00 36 1009.1
20260503230253 89 73 2.0 4.0 0.00 0.00 0.00 37 1009.3
20260503230056 89 273 2.0 8.0 0.00 0.00 0.00 37 1009.4
20260503225247 89 5 1.0 4.0 0.00 0.00 0.00 38 1009.5
20260503225242 89 297 1.0 5.0 0.00 0.00 0.00 36 1009.5
20260503224229 89 40 1.0 5.0 0.00 0.00 0.00 41 1009.6
20260503223727 88 71 2.0 6.0 0.00 0.00 0.00 40 1009.8
20260503223723 88 286 2.0 6.0 0.00 0.00 0.00 40 1009.7
20260503222712 88 307 2.0 5.0 0.00 0.00 0.00 43 1009.9
20260503222206 87 300 2.0 6.0 0.00 0.00 0.00 43 1010.0
20260503221659 87 335 2.0 6.0 0.00 0.00 0.00 43 1010.1
20260503221152 87 336 2.0 6.0 0.00 0.00 0.00 44 1010.1
20260503220647 88 289 2.0 6.0 0.00 0.00 0.00 44 1010.2
20260503220143 88 307 2.0 6.0 0.00 0.00 0.00 45 1010.3
20260503215640 87 71 2.0 4.0 0.00 0.00 0.00 49 1010.3
20260503215635 87 342 2.0 6.0 0.00 0.00 0.00 47 1010.3
20260503214635 87 98 1.0 4.0 0.00 0.00 0.00 47 1010.3
20260503214135 87 83 2.0 7.0 0.00 0.00 0.00 47 1010.3
20260503213635 87 202 2.0 7.0 0.00 0.00 0.00 46 1010.5
20260503213137 87 63 2.0 5.0 0.00 0.00 0.00 46 1010.4
20260503212635 87 348 1.0 4.0 0.00 0.00 0.00 48 1010.6
20260503212134 86 55 1.0 3.0 0.00 0.00 0.00 48 1010.6
20260503211635 86 263 1.0 4.0 0.00 0.00 0.00 50 1010.7
20260503211135 85 183 1.0 4.0 0.00 0.00 0.00 48 1010.7
20260503210637 85 349 2.0 5.0 0.00 0.00 0.00 51 1010.8
20260503210133 84 340 2.0 5.0 0.00 0.00 0.00 47 1010.8
20260503205633 84 324 2.0 8.0 0.00 0.00 0.00 48 1010.9
20260503205140 84 37 2.0 8.0 0.00 0.00 0.00 48 1010.8
20260503204633 84 321 1.0 4.0 0.00 0.00 0.00 49 1011.0
20260503204133 84 311 1.0 4.0 0.00 0.00 0.00 50 1011.1
20260503203633 83 69 2.0 5.0 0.00 0.00 0.00 52 1011.2
20260503203127 83 62 2.0 5.0 0.00 0.00 0.00 50 1011.3
20260503202625 82 219 2.0 5.0 0.00 0.00 0.00 53 1011.3
20260503202621 82 29 2.0 5.0 0.00 0.00 0.00 52 1011.4
20260503201609 82 44 1.0 4.0 0.00 0.00 0.00 53 1011.4
20260503201335 81 15 2.0 4.0 0.00 0.00 0.00 52 1011.4
20260503200557 81 339 2.0 4.0 0.00 0.00 0.00 52 1011.5
20260503200056 81 331 2.0 4.0 0.00 0.00 0.00 54 1011.5
20260503195557 80 40 2.0 4.0 0.00 0.00 0.00 56 1011.5
20260503195057 80 320 1.0 4.0 0.00 0.00 0.00 56 1011.7
20260503194557 80 355 2.0 5.0 0.00 0.00 0.00 57 1011.6
20260503194057 79 313 1.0 5.0 0.00 0.00 0.00 58 1011.7
20260503193600 80 76 1.0 5.0 0.00 0.00 0.00 58 1011.7
20260503193055 79 298 1.0 5.0 0.00 0.00 0.00 61 1011.8
20260503192554 78 306 1.0 5.0 0.00 0.00 0.00 61 1011.9
20260503192053 78 25 1.0 4.0 0.00 0.00 0.00 59 1011.8
20260503191706 77 292 1.0 5.0 0.00 0.00 0.00 60 1012.0
20260503191552 78 310 1.0 4.0 0.00 0.00 0.00 61 1012.0
20260503191439 77 292 1.0 5.0 0.00 0.00 0.00 60 1012.0
20260503191338 77 178 2.0 5.0 0.00 0.00 0.00 62 1012.0
20260503190051 76 309 1.0 4.0 0.00 0.00 0.00 63 1012.1
20260503185549 76 355 2.0 4.0 0.00 0.00 0.00 60 1012.1
20260503185050 76 331 1.0 4.0 0.00 0.00 0.00 60 1012.2
20260503184548 75 303 1.0 5.0 0.00 0.00 0.00 63 1012.2
20260503184046 75 293 1.0 5.0 0.00 0.00 0.00 62 1012.2
20260503183545 75 184 1.0 4.0 0.00 0.00 0.00 63 1012.3
20260503183045 75 248 1.0 4.0 0.00 0.00 0.00 63 1012.2
20260503182544 74 308 1.0 4.0 0.00 0.00 0.00 64 1012.3
20260503182045 74 180 2.0 5.0 0.00 0.00 0.00 65 1012.4
20260503181546 73 19 1.0 5.0 0.00 0.00 0.00 65 1012.4
20260503181045 73 238 1.0 3.0 0.00 0.00 0.00 66 1012.5
20260503180545 72 302 1.0 4.0 0.00 0.00 0.00 67 1012.4
20260503180045 72 211 1.0 4.0 0.00 0.00 0.00 68 1012.4
20260503175551 70 26 2.0 8.0 0.00 0.01 0.00 70 1012.6
20260503175545 71 198 1.0 5.0 0.00 0.00 0.00 69 1012.5
20260503174544 70 48 2.0 8.0 0.00 0.01 0.00 68 1012.6
20260503174045 70 348 1.0 4.0 0.00 0.01 0.00 70 1012.7
20260503173545 70 306 1.0 4.0 0.00 0.01 0.00 71 1012.6
20260503173045 69 268 1.0 4.0 0.00 0.01 0.00 74 1012.6
20260503172545 68 331 1.0 4.0 0.00 0.01 0.00 75 1012.6
20260503172047 67 348 1.0 5.0 0.00 0.01 0.00 75 1012.6
20260503171544 67 331 1.0 5.0 0.00 0.01 0.00 76 1012.6
20260503171038 66 176 1.0 4.0 0.00 0.01 0.00 78 1012.6
20260503170536 65 344 1.0 5.0 0.00 0.01 0.00 78 1012.6
20260503150956 55 248 0.0 2.0 0.00 0.01 0.00 95 1013.0
20260503150948 54 248 0.0 3.0 0.00 0.01 0.00 95 1013.0
20260503131234 53 294 0.0 2.0 0.00 0.01 0.00 93 1012.6
20260503130733 53 294 0.0 0.0 0.00 0.01 0.00 93 1012.6
20260503130729 53 294 0.0 0.0 0.00 0.01 0.00 93 1012.6
20260503120219 54 294 0.0 0.0 0.00 0.01 0.00 93 1012.6
20260503110715 55 294 0.0 1.0 0.00 0.01 0.00 92 1012.7
20260503110215 55 294 0.0 2.0 0.00 0.01 0.00 92 1012.7
20260503100156 55 271 0.0 1.0 0.00 0.01 0.00 91 1012.7
20260503081451 57 327 0.0 1.0 0.00 0.01 0.00 89 1013.1
20260503080945 57 327 0.0 1.0 0.00 0.01 0.00 89 1013.1
20260503080439 57 327 0.0 1.0 0.00 0.01 0.00 88 1013.1
20260503072350 58 327 0.0 1.0 0.00 0.01 0.00 87 1013.4
20260503071847 58 327 0.0 0.0 0.00 0.01 0.00 87 1013.4
20260503071339 58 327 0.0 0.0 0.00 0.01 0.00 87 1013.6
20260503070833 58 327 0.0 0.0 0.00 0.01 0.00 87 1013.6
20260503070327 58 327 0.0 0.0 0.00 0.01 0.00 87 1013.7
20260503060222 59 327 0.0 1.0 0.00 0.01 0.01 85 1013.8
20260503054724 59 327 0.0 1.0 0.00 0.01 0.01 85 1013.6
20260503054222 59 328 0.0 3.0 0.00 0.01 0.01 85 1013.4
20260503053722 60 328 0.0 3.0 0.00 0.01 0.01 85 1013.5
20260503053222 60 265 0.0 1.0 0.00 0.01 0.01 85 1013.6
20260503052720 60 265 0.0 0.0 0.00 0.01 0.01 84 1013.6
20260503052219 60 265 0.0 2.0 0.00 0.01 0.01 85 1013.5
20260503051725 60 265 0.0 2.0 0.00 0.01 0.01 84 1013.6
20260503051720 60 265 0.0 2.0 0.00 0.01 0.01 84 1013.5
20260503050720 60 263 0.0 0.0 0.00 0.01 0.01 84 1013.6
20260503050217 60 263 0.0 0.0 0.00 0.01 0.01 84 1013.7
20260503045720 60 263 0.0 0.0 0.00 0.01 0.01 84 1013.8
20260503045218 60 263 0.0 1.0 0.00 0.01 0.01 83 1013.6
20260503044716 60 263 0.0 1.0 0.00 0.01 0.01 83 1013.8
20260503044218 60 263 0.0 1.0 0.00 0.01 0.01 83 1013.7
20260503044214 60 263 0.0 1.0 0.00 0.01 0.01 83 1013.8